Location: Kalberh�ni
(46.4610°N, 7.2453°E)
Time: 16:57:34
(UTC+00:00)

Meteor 2-1 Rocket - Pass Details

Date: 30 October 2021
Orbit: 830 x 906 km, 81.3° (Epoch: 28 November)

Event Time Altitude Azimuth Distance (km) Brightness Sun altitude
Rises 18:54:43 0° 199° (SSW) 3,404 7.5 -27.3°
Reaches altitude 10° 18:57:10 10° 203° (SSW) 2,463 6.7 -27.7°
Maximum altitude 19:02:41 62° 284° (WNW) 939 4.6 -28.6°
Drops below altitude 10° 19:08:11 10° 5° (N) 2,451 6.6 -29.6°
Sets 19:10:37 0° 9° (N) 3,387 7.4 -30.0°
